Weather History for Tampico, Mexico

Change the Weather History Date:

Wednesday, November 21, 2012

  Actual Average Record
Temperature  
Mean Temperature 73 °F -  
Max Temperature 80 °F 74 °F 88 °F (2013)
Min Temperature 66 °F 61 °F 57 °F (2001)
Cooling Degree Days 8    
Growing Degree Days 23 (Base 50)    
Moisture  
Dew Point 66 °F    
Average Humidity 78    
Maximum Humidity 100    
Minimum Humidity 56    
Precipitation  
Precipitation 0.04 in - - ()
Sea Level Pressure  
Sea Level Pressure 30.16 in    
Wind  
Wind Speed 7 mph ()    
Max Wind Speed 17 mph    
Max Gust Speed -    
Visibility 8.6 miles    
Events Rain    
Averages and records for this station are not official NWS values.
T = Trace of Precipitation, MM = Missing Value Source: Averaged Metar Reports

Daily Weather History Graph

Daily Weather History Graph

Search for Another Location

Airport:

Trip Planner

Search our weather history database for the weather conditions in past years. The results will help you decide how hot, cold, wet, or windy it might be!

Date:

Astronomy

Nov. 21, 2012 Rise Set
Actual Time 6:48 AM CST 5:46 PM CST
Civil Twilight 6:24 AM CST 6:10 PM CST
Nautical Twilight 5:56 AM CST 6:37 PM CST
Astronomical Twilight 5:29 AM CST 7:04 PM CST
Moon 1:24 PM CST (11/21) 12:51 AM CST (11/21)
Length of Visible Light 11h 46m
Length of Day
10h 58m
First Quarter, 62% of the Moon is Illuminated
Nov 21
First Quarter
Nov 28
Full
Dec 6
Last Quarter
Dec 13
New
Dec 19
First Quarter

Hourly Weather History & Observations

Time (CST) Temp. Dew Point Humidity Pressure Visibility Wind Dir Wind Speed Gust Speed Precip Events Conditions
2:40 AM 68 °F 67 °F 96% 30.18 in 6 mi NW 4.5 mph - -  
5:40 AM 68 °F 65 °F 88% 30.17 in 6 mi NNW 6.7 mph - -  
5:41 AM 68.0 °F 62.6 °F 83% 30.11 in 7.0 mi NW 5.8 mph - N/A   Clear
6:40 AM 68.0 °F 62.6 °F 83% 30.14 in 8.0 mi NNW 8.1 mph - N/A   Partly Cloudy
7:46 AM 69.8 °F 64.4 °F 83% 30.18 in 8.0 mi NNW 4.6 mph - N/A   Scattered Clouds
8:40 AM 72 °F 64 °F 71% 30.23 in 16 mi NW 4.5 mph - -   Clear
8:41 AM 73.4 °F 64.4 °F 73% 30.20 in 10.0 mi NW 9.2 mph - N/A   Scattered Clouds
9:40 AM 73.4 °F 64.4 °F 73% 30.21 in 10.0 mi WNW 8.1 mph - N/A   Mostly Cloudy
10:40 AM 75.2 °F 64.4 °F 69% 30.21 in 10.0 mi NW 6.9 mph - N/A   Mostly Cloudy
11:45 AM 78 °F 65 °F 56% 30.23 in 16 mi North 6.7 mph - -   Overcast
11:50 AM 77.0 °F 64.4 °F 65% 30.15 in 10.0 mi NNW 9.2 mph - N/A   Mostly Cloudy
12:40 PM 78.8 °F 64.4 °F 61% 30.16 in 8.0 mi North 6.9 mph - N/A   Mostly Cloudy
1:49 PM 77.0 °F 66.2 °F 69% 30.13 in 8.0 mi NNE 11.5 mph - N/A   Mostly Cloudy
2:45 PM 77.0 °F 66.2 °F 69% 30.12 in 8.0 mi NE 12.7 mph - N/A   Mostly Cloudy
2:48 PM 78 °F 65 °F 56% 30.15 in 16 mi NE 6.7 mph - -   Overcast
3:49 PM 77.0 °F 66.2 °F 69% 30.10 in 8.0 mi NE 13.8 mph - N/A   Mostly Cloudy
4:42 PM 73.4 °F 68.0 °F 83% 30.10 in 8.0 mi East 9.2 mph - N/A   Mostly Cloudy
5:40 PM 76 °F 70 °F 76% 30.14 in 16 mi East 6.7 mph - -   Scattered Clouds
5:43 PM 73.4 °F 68.0 °F 83% 30.09 in 8.0 mi ENE 5.8 mph - N/A   Mostly Cloudy
6:50 PM 73.4 °F 68.0 °F 83% 30.12 in 8.0 mi ENE 5.8 mph - N/A   Mostly Cloudy
7:48 PM 73.4 °F 68.0 °F 83% 30.14 in 8.0 mi ENE 13.8 mph - N/A   Mostly Cloudy
8:40 PM 69.8 °F 64.4 °F 83% 30.17 in 3.0 mi NE 17.3 mph - N/A   Drizzle
8:45 PM 72 °F 70 °F 93% 30.20 in 6 mi ENE 8.9 mph - - Rain Light Drizzle
9:43 PM 68.0 °F 64.4 °F 88% 30.17 in 3.0 mi North 4.6 mph - N/A   Light Drizzle
10:43 PM 68.0 °F 66.2 °F 94% 30.16 in 4.0 mi WNW 3.5 mph - N/A   Light Drizzle
11:40 PM 69 °F 69 °F 100% 30.19 in 4 mi ENE 4.5 mph - - Rain Heavy Rain